CZ-6A DEB, 54388

Orbit data source: Space-Track

CZ-6A DEB, 54388 is space debris in SSO originally from a launch on Fri, 11 Nov 2022 UTC launched from the Taiyaun Space Center, China (TSC). Debris objects in space refer to the collection of defunct objects orbiting the Earth. Examples of debris include non-operational satellites, rocket bodies, and fragments generated from explosions, collisions, or faulty payload assembly.

Loading next visibility...
Identifier
54388, 2022-151DL
Orbit
SSO
Country
Flag of CNCN / PRC
Related business
Manufacturer
SAST
Mission
Spacecraft
Bus & Motor
Unknown
Mass
Unknown
Launch date (UTC)
2022-11-11 (3 years ago)
Launch vehicle
Unknown
Launch site
Taiyaun Space Center, China (TSC)
Object type
Payload
Rocket body
Debris
Shape & HBR
Unknown shape, 0.1 m
Radar Cross Section
Small (<0.1 m²)

Expand to show TLE details & history
Last TLE update: 22 hours ago

TLE from 22 hours ago
0 CZ-6A DEB
1 54388U 22151DL  25353.50149623  .00000650  00000-0  41287-3 0  9993
2 54388  98.8649 340.5380 0087476 172.2873 187.9664 14.05393455158373
Epoch: 2025-12-19T12:02Z
TLE epoch observation values (Epoch: 2025-12-19T12:02:09.274Z)
Latitude
0.00005°
Longitude
71.65761°
Altitude
940.928 km
Speed
7.349 km/s
True Right ascension
22h 42m 09s
True Declination
0° 00' 00"
Sunlit
Object was in daylight at epoch
Visualization orbit readout
Latitude
Unknown
Longitude
Unknown
Altitude
Unknown
Speed
Unknown
Apparent Right ascension
Unknown
Apparent Declination
Unknown
Sunlit
N/A
Visualization observer readout
Local Sidereal Time
08:40:00
Azimuth
Unknown
Elevation
Unknown
Doppler factor
Unknown
Orbital elements
Apogee altitude
935.788 km
Perigee altitude
808.939 km
Semi-major axis
7,250.501 km
Eccentricity
0.00875
Inclination
98.8649°
RAAN
340.538°
Arg. of periapsis
172.2873°
True anomaly
187.82896°
Mean anomaly
187.9664°
Eccentric anomaly
187.89753°
Mean motion
3.51553 °/min
Orbital period
102.4 mins
BSTAR
0.00041287
Loading maneuver chart data...
Computing Atmospheric mass density...
Loading historical data...
Loading historical data...
Loading historical data...
Loading historical data...
Loading historical data...
Loading historical data...
Loading historical data...

Documentation

Showing up to 5 results
|